Burley, ID

1:47 PM MST on December 02, 2016 (GMT -0700)
Burley Municipal

Weather History for KBYI - October, 2013

Change the Weather History Date:

Monday, October 28, 2013

  Actual Average Record
Temperature  
Mean Temperature 45 °F 43 °F  
Max Temperature 55 °F 56 °F 76 °F (1968)
Min Temperature 34 °F 31 °F 16 °F (1970)
Degree Days  
Heating Degree Days 20 22  
Month to date heating degree days 536 472  
Since 1 July heating degree days 679 742  
Cooling Degree Days 0 0  
Month to date cooling degree days 0 0  
Year to date cooling degree days 642 365  
Moisture  
Dew Point 35 °F    
Average Humidity 63    
Maximum Humidity 85    
Minimum Humidity 41    
Precipitation  
Precipitation 0.02 in 0.02 in 0.86 in (2016)
Month to date precipitation 0.25 0.67  
Year to date precipitation 4.33 7.98  
Sea Level Pressure  
Sea Level Pressure 29.49 in    
Wind  
Wind Speed 10 mph (East)    
Max Wind Speed 25 mph    
Max Gust Speed 33 mph    
T = Trace of Precipitation, MM = Missing Value Source: NWS Daily Summary

Daily Weather History Graph

Daily Weather History Graph

Search for Another Location

Airport or City:

Trip Planner

Search our weather history database for the weather conditions in past years. The results will help you decide how hot, cold, wet, or windy it might be!

Date:

Astronomy

Oct. 28, 2013 Rise Set
Actual Time 8:04 AM MDT 6:32 PM MDT
Civil Twilight 7:35 AM MDT 7:01 PM MDT
Nautical Twilight 7:01 AM MDT 7:34 PM MDT
Astronomical Twilight 6:29 AM MDT 8:07 PM MDT
Moon 1:53 AM MDT (10/28) 3:23 PM MDT (10/28)
Length of Visible Light 11h 26m
Length of Day
10h 28m
Waning Crescent, 33% of the Moon is Illuminated
Oct 28
Waning Crescent
Nov 3
New
Nov 9
First Quarter
Nov 17
Full
Nov 25
Last Quarter

Hourly Weather History & Observations

Time (MDT) Temp. Windchill Dew Point Humidity Pressure Visibility Wind Dir Wind Speed Gust Speed Precip Events Conditions
12:53 AM 55.0 °F - 32.0 °F 42% 29.44 in - NNE 15.0 mph - N/A   Overcast
1:53 AM 53.1 °F - 32.0 °F 45% 29.40 in - NE 9.2 mph - N/A   Overcast
2:53 AM 51.1 °F - 30.9 °F 46% 29.40 in - ESE 4.6 mph - N/A   Overcast
3:53 AM 48.0 °F - 32.0 °F 54% 29.40 in - SSE 4.6 mph - N/A   Mostly Cloudy
4:53 AM 46.9 °F - 33.1 °F 59% 29.41 in - Calm Calm - N/A   Overcast
5:53 AM 45.0 °F 42.6 °F 34.0 °F 65% 29.39 in - South 4.6 mph - N/A   Overcast
6:53 AM 42.1 °F 40.2 °F 33.1 °F 70% 29.39 in - East 3.5 mph - N/A   Overcast
7:53 AM 48.9 °F - 36.0 °F 61% 29.40 in - ENE 17.3 mph 24.2 mph N/A   Overcast
8:53 AM 48.0 °F - 36.0 °F 63% 29.42 in - East 13.8 mph 20.7 mph 0.00 in   Overcast
9:53 AM 48.9 °F - 35.1 °F 59% 29.43 in - ENE 13.8 mph - 0.00 in   Overcast
10:53 AM 51.1 °F - 36.0 °F 56% 29.42 in - ENE 16.1 mph 31.1 mph 0.00 in   Overcast
11:38 AM 48.0 °F - 37.9 °F 68% 29.54 in - SE 9.2 mph - 0.01 in Rain Light Rain
11:53 AM 48.9 °F - 39.0 °F 69% 29.47 in - East 11.5 mph - 0.01 in Rain Light Rain
12:53 PM 48.0 °F - 41.0 °F 77% 29.44 in - ENE 19.6 mph - 0.01 in Rain Light Rain
1:53 PM 50.0 °F - 41.0 °F 71% 29.43 in - NE 20.7 mph 25.3 mph 0.00 in   Mostly Cloudy
2:53 PM 48.9 °F - 42.1 °F 77% 29.44 in - East 10.4 mph - 0.00 in Rain Light Rain
3:53 PM 52.0 °F - 39.9 °F 63% 29.44 in - North 5.8 mph - 0.00 in   Scattered Clouds
4:53 PM 48.9 °F - 37.0 °F 64% 29.48 in - South 9.2 mph - N/A   Partly Cloudy
5:53 PM 46.9 °F - 35.1 °F 63% 29.53 in - SSW 9.2 mph - N/A   Overcast
6:53 PM 46.0 °F 38.3 °F 32.0 °F 58% 29.57 in - SSW 20.7 mph 28.8 mph N/A   Overcast
7:53 PM 45.0 °F 41.8 °F 32.0 °F 60% 29.62 in - SSW 5.8 mph - N/A   Overcast
8:53 PM 44.1 °F - 32.0 °F 63% 29.65 in - Calm Calm - N/A   Scattered Clouds
9:53 PM 41.0 °F 35.8 °F 35.1 °F 79% 29.68 in - ENE 8.1 mph - N/A   Clear
10:53 PM 39.0 °F 31.8 °F 35.1 °F 86% 29.72 in - NE 11.5 mph - N/A   Clear
11:53 PM 37.0 °F 30.4 °F 34.0 °F 89% 29.73 in - ENE 9.2 mph - N/A   Clear